Weather History for Glasgow, MT

Change the Weather History Date:

Sunday, November 27, 2011

  Actual Average Record
Temperature  
Mean Temperature 39 °F 23 °F  
Max Temperature 53 °F 33 °F 69 °F (1949)
Min Temperature 24 °F 13 °F -41 °F (1896)
Degree Days  
Heating Degree Days 26 42  
Month to date heating degree days 965 941  
Since 1 July heating degree days 1597 1865  
Cooling Degree Days 0 0  
Month to date cooling degree days 0 0  
Year to date cooling degree days 558 533  
Moisture  
Dew Point 25 °F    
Average Humidity 60    
Maximum Humidity 85    
Minimum Humidity 35    
Precipitation  
Precipitation 0.00 in 0.01 in 0.37 in (1962)
Month to date precipitation 0.51 0.36  
Year to date precipitation 22.39 11.22  
Snow  
Snow 0.00 in 0.20 in 2.20 in (2005)
Month to date snowfall 7.1 4.4  
Since 1 July snowfall 7.1 5.9  
Since 1 September snowfall 7.1 5.9  
Snow Depth 0.00 in    
Sea Level Pressure  
Sea Level Pressure 29.99 in    
Wind  
Wind Speed 10 mph (SSE)    
Max Wind Speed 17 mph    
Max Gust Speed 22 mph    
Visibility 10 miles    
Events      
T = Trace of Precipitation, MM = Missing Value Source: NWS Daily Summary

Daily Weather History Graph

Daily Weather History Graph

Search for Another Location

Airport:

Trip Planner

Search our weather history database for the weather conditions in past years. The results will help you decide how hot, cold, wet, or windy it might be!

Date:

Astronomy

Nov. 27, 2011 Rise Set
Actual Time 7:30 AM MST 4:17 PM MST
Civil Twilight 6:55 AM MST 4:52 PM MST
Nautical Twilight 6:16 AM MST 5:31 PM MST
Astronomical Twilight 5:39 AM MST 6:08 PM MST
Moon 9:59 AM MST (11/27) 6:58 PM MST (11/27)
Length of Visible Light 9h 57m
Length of Day
8h 46m
Waxing Crescent, 9% of the Moon is Illuminated
Nov 27
Waxing Crescent
Dec 2
First Quarter
Dec 10
Full
Dec 17
Last Quarter
Dec 24
New

Hourly Weather History & Observations

Time (MST) Temp. Windchill Dew Point Humidity Pressure Visibility Wind Dir Wind Speed Gust Speed Precip Events Conditions
12:53 AM 25.0 °F 14.8 °F 18.0 °F 75% 30.26 in 10.0 mi ESE 10.4 mph - N/A   Clear
1:53 AM 25.0 °F 14.2 °F 18.0 °F 75% 30.24 in 10.0 mi ESE 11.5 mph - N/A   Clear
2:53 AM 25.0 °F 14.8 °F 19.0 °F 78% 30.22 in 10.0 mi SE 10.4 mph - N/A   Clear
3:53 AM 25.0 °F 14.8 °F 19.9 °F 81% 30.20 in 10.0 mi ESE 10.4 mph - N/A   Clear
4:53 AM 26.1 °F 15.6 °F 21.0 °F 81% 30.18 in 10.0 mi ESE 11.5 mph - N/A   Clear
5:53 AM 27.0 °F 16.7 °F 21.9 °F 81% 30.16 in 10.0 mi ESE 11.5 mph - N/A   Clear
6:53 AM 28.0 °F 17.5 °F 23.0 °F 81% 30.13 in 10.0 mi SE 12.7 mph - N/A   Clear
7:53 AM 28.4 °F 18.5 °F 24.8 °F 86% 30.02 in 10.0 mi SE 11.5 mph - N/A   Clear
8:53 AM 34.0 °F 26.0 °F 26.1 °F 73% 30.09 in 10.0 mi SE 10.4 mph - N/A   Clear
9:53 AM 41.0 °F 34.7 °F 28.0 °F 60% 30.06 in 10.0 mi SSE 10.4 mph - N/A   Clear
10:53 AM 43.0 °F 38.2 °F 30.9 °F 62% 30.04 in 10.0 mi SE 8.1 mph - N/A   Clear
11:53 AM 48.9 °F - 28.9 °F 46% 29.97 in 10.0 mi SSE 13.8 mph - N/A   Clear
12:53 PM 50.0 °F - 30.9 °F 48% 29.95 in 10.0 mi SSE 9.2 mph - N/A   Clear
1:53 PM 52.0 °F - 28.0 °F 40% 29.91 in 10.0 mi SE 6.9 mph - N/A   Clear
2:53 PM 48.9 °F - 30.9 °F 50% 29.89 in 10.0 mi SE 8.1 mph - N/A   Clear
3:53 PM 48.9 °F - 28.0 °F 44% 29.87 in 10.0 mi South 4.6 mph - N/A   Clear
4:53 PM 50.0 °F - 27.0 °F 41% 29.86 in 10.0 mi SSW 11.5 mph - N/A   Clear
5:53 PM 46.9 °F - 27.0 °F 46% 29.83 in 10.0 mi South 9.2 mph - N/A   Clear
6:53 PM 43.0 °F 38.8 °F 27.0 °F 53% 29.83 in 10.0 mi SE 6.9 mph - N/A   Clear
7:53 PM 46.9 °F - 26.1 °F 44% 29.81 in 10.0 mi WSW 4.6 mph - N/A   Clear
8:53 PM 52.0 °F - 25.0 °F 35% 29.79 in 10.0 mi West 13.8 mph - N/A   Clear
9:53 PM 46.9 °F - 24.1 °F 41% 29.80 in 10.0 mi SW 8.1 mph - N/A   Clear
10:53 PM 48.9 °F - 24.1 °F 38% 29.80 in 10.0 mi SW 10.4 mph - N/A   Clear
11:53 PM 48.9 °F - 23.0 °F 36% 29.81 in 10.0 mi WSW 9.2 mph - N/A   Clear